Weather History for Troy, MI

Change the Weather History Date:

Wednesday, February 6, 2013

  Actual Average (KDET) Record (KDET)
Temperature  
Mean Temperature 26 °F -  
Max Temperature 34 °F 28 °F 51 °F (1965)
Min Temperature 19 °F 16 °F -3 °F (1982)
Degree Days  
Heating Degree Days 38    
Moisture  
Dew Point 17 °F    
Average Humidity 66    
Maximum Humidity 86    
Minimum Humidity 42    
Precipitation  
Precipitation 0.00 in - - ()
Sea Level Pressure  
Sea Level Pressure 30.21 in    
Wind  
Wind Speed 6 mph (WSW)    
Max Wind Speed 12 mph    
Max Gust Speed 17 mph    
Visibility 10 miles    
Events Snow    
Averages and records for this station are not official NWS values.
T = Trace of Precipitation, MM = Missing Value Source: NWS Daily Summary

Daily Weather History Graph

Daily Weather History Graph

Search for Another Location

Airport:

Trip Planner

Search our weather history database for the weather conditions in past years. The results will help you decide how hot, cold, wet, or windy it might be!

Date:

Astronomy

Feb. 06, 2013 Rise Set
Actual Time 7:40 AM EST 5:53 PM EST
Civil Twilight 7:11 AM EST 6:22 PM EST
Nautical Twilight 6:37 AM EST 6:56 PM EST
Astronomical Twilight 6:05 AM EST 7:29 PM EST
Moon 4:25 AM EST (2/6) 2:08 PM EST (2/6)
Length of Visible Light 11h 11m
Length of Day
10h 12m
Waning Crescent, 17% of the Moon is Illuminated
Feb 6
Waning Crescent
Feb 10
New
Feb 17
First Quarter
Feb 25
Full
Mar 4
Last Quarter

Hourly Weather History & Observations

Time (EST) Temp. Windchill Dew Point Humidity Pressure Visibility Wind Dir Wind Speed Gust Speed Precip Events Conditions
12:14 AM 30.7 °F 21.4 °F 26.6 °F 85% 29.95 in 4.0 mi NW 11.5 mph 17.3 mph N/A Snow Light Snow
12:35 AM 30.0 °F 22.4 °F 26.2 °F 86% 29.97 in 2.5 mi NW 8.1 mph - N/A Snow Light Snow
12:54 AM 29.8 °F 22.2 °F 25.9 °F 85% 29.97 in 4.0 mi NW 8.1 mph - N/A Snow Light Snow
1:14 AM 29.5 °F 19.9 °F 25.0 °F 83% 29.99 in 5.0 mi NW 11.5 mph - N/A Snow Light Snow
1:35 AM 27.9 °F 17.8 °F 22.3 °F 80% 30.01 in 7.0 mi NNW 11.5 mph 17.3 mph N/A Snow Light Snow
1:54 AM 27.3 °F 17.7 °F 22.1 °F 81% 30.03 in 5.0 mi NNW 10.4 mph - N/A Snow Light Snow
2:14 AM 26.6 °F 18.2 °F 21.6 °F 81% 30.04 in 5.0 mi North 8.1 mph - N/A Snow Light Snow
2:34 AM 26.4 °F 20.9 °F 20.3 °F 78% 30.05 in 10.0 mi NW 4.6 mph - N/A Snow Light Snow
2:54 AM 25.5 °F 19.9 °F 18.0 °F 73% 30.07 in 10.0 mi NNW 4.6 mph - N/A   Mostly Cloudy
3:14 AM 24.4 °F 17.5 °F 17.4 °F 75% 30.09 in 10.0 mi NW 5.8 mph - N/A   Scattered Clouds
3:34 AM 23.0 °F 18.4 °F 16.9 °F 77% 30.09 in 10.0 mi NW 3.5 mph - N/A   Clear
3:55 AM 22.8 °F 18.2 °F 16.3 °F 76% 30.09 in 10.0 mi NW 3.5 mph - N/A   Clear
4:14 AM 22.8 °F 18.2 °F 16.3 °F 76% 30.10 in 10.0 mi WNW 3.5 mph - N/A   Clear
4:34 AM 21.9 °F 17.2 °F 16.0 °F 78% 30.11 in 10.0 mi West 3.5 mph - N/A   Clear
4:55 AM 21.2 °F 16.4 °F 15.1 °F 77% 30.13 in 10.0 mi WSW 3.5 mph - N/A   Clear
5:14 AM 20.8 °F 16.0 °F 15.4 °F 80% 30.14 in 10.0 mi West 3.5 mph - N/A   Clear
5:34 AM 20.3 °F 15.4 °F 15.6 °F 82% 30.15 in 10.0 mi West 3.5 mph - N/A   Clear
5:55 AM 20.5 °F 15.6 °F 15.6 °F 81% 30.16 in 10.0 mi West 3.5 mph - N/A   Clear
6:14 AM 20.7 °F 11.9 °F 15.8 °F 81% 30.17 in 10.0 mi WNW 6.9 mph - N/A   Clear
6:35 AM 20.3 °F 11.5 °F 15.6 °F 82% 30.18 in 10.0 mi WNW 6.9 mph - N/A   Clear
6:54 AM 20.3 °F 12.5 °F 15.4 °F 81% 30.18 in 10.0 mi WNW 5.8 mph - N/A   Clear
7:14 AM 20.1 °F 13.6 °F 15.4 °F 82% 30.19 in 10.0 mi WNW 4.6 mph - N/A   Clear
7:35 AM 19.8 °F 13.2 °F 15.1 °F 82% 30.21 in 10.0 mi WNW 4.6 mph - N/A   Clear
7:54 AM 20.1 °F 13.6 °F 15.3 °F 81% 30.21 in 10.0 mi WNW 4.6 mph - N/A   Clear
8:34 AM 21.0 °F 16.2 °F 15.4 °F 79% 30.24 in 10.0 mi West 3.5 mph - N/A   Clear
8:54 AM 21.9 °F 15.7 °F 15.8 °F 77% 30.25 in 10.0 mi West 4.6 mph - N/A   Clear
9:15 AM 22.5 °F 16.3 °F 15.8 °F 76% 30.25 in 10.0 mi NW 4.6 mph - N/A   Clear
9:34 AM 23.2 °F 18.7 °F 16.0 °F 74% 30.26 in 10.0 mi NNW 3.5 mph - N/A   Clear
9:54 AM 24.3 °F - 15.6 °F 70% 30.27 in 10.0 mi Calm Calm - N/A   Clear
10:14 AM 25.2 °F - 15.1 °F 66% 30.27 in 10.0 mi Calm Calm - N/A   Clear
10:34 AM 26.4 °F - 15.1 °F 62% 30.27 in 10.0 mi Calm Calm - N/A   Clear
10:54 AM 26.6 °F - 14.7 °F 61% 30.28 in 10.0 mi Calm Calm - N/A   Clear
11:14 AM 28.2 °F - 15.1 °F 58% 30.27 in 10.0 mi Calm Calm - N/A   Clear
11:35 AM 29.3 °F - 15.1 °F 55% 30.27 in 10.0 mi Calm Calm - N/A   Clear
11:54 AM 30.9 °F 27.5 °F 14.9 °F 52% 30.28 in 10.0 mi SW 3.5 mph - N/A   Clear
12:14 PM 31.1 °F - 14.5 °F 50% 30.27 in 10.0 mi Calm Calm - N/A   Clear
12:35 PM 31.6 °F 27.0 °F 14.7 °F 50% 30.27 in 10.0 mi SW 4.6 mph - N/A   Clear
12:54 PM 32.5 °F - 15.3 °F 49% 30.27 in 10.0 mi Calm Calm - N/A   Clear
1:15 PM 32.9 °F 28.5 °F 15.3 °F 48% 30.27 in 10.0 mi West 4.6 mph - N/A   Clear
1:35 PM 33.3 °F 28.9 °F 15.8 °F 49% 30.28 in 10.0 mi WSW 4.6 mph - N/A   Clear
1:54 PM 33.3 °F 27.1 °F 15.3 °F 48% 30.27 in 10.0 mi South 6.9 mph - N/A   Clear
2:15 PM 33.1 °F 28.7 °F 14.7 °F 47% 30.27 in 10.0 mi NNW 4.6 mph - N/A   Clear
2:34 PM 33.8 °F 29.6 °F 14.7 °F 46% 30.27 in 10.0 mi WSW 4.6 mph - N/A   Clear
2:54 PM 34.3 °F - 14.5 °F 44% 30.26 in 10.0 mi Calm Calm - N/A   Clear
3:15 PM 34.7 °F 28.8 °F 13.8 °F 42% 30.27 in 10.0 mi South 6.9 mph - N/A   Clear
3:34 PM 34.7 °F 29.6 °F 13.5 °F 42% 30.27 in 10.0 mi SSW 5.8 mph - N/A   Clear
3:54 PM 34.2 °F - 12.9 °F 42% 30.26 in 10.0 mi Calm Calm - N/A   Clear
4:15 PM 34.7 °F 28.8 °F 14.0 °F 43% 30.25 in 10.0 mi South 6.9 mph - N/A   Clear
4:34 PM 34.0 °F 29.8 °F 14.0 °F 44% 30.24 in 10.0 mi SSE 4.6 mph - N/A   Clear
4:54 PM 33.6 °F 30.6 °F 17.2 °F 51% 30.25 in 10.0 mi ESE 3.5 mph - N/A   Clear
5:15 PM 32.0 °F 26.4 °F 18.7 °F 58% 30.26 in 10.0 mi ESE 5.8 mph - N/A   Clear
5:34 PM 32.0 °F 28.7 °F 18.9 °F 58% 30.28 in 10.0 mi South 3.5 mph - N/A   Clear
5:55 PM 31.5 °F 23.5 °F 18.7 °F 59% 30.29 in 10.0 mi South 9.2 mph - N/A   Clear
6:15 PM 30.4 °F 23.6 °F 18.5 °F 61% 30.30 in 10.0 mi South 6.9 mph - N/A   Clear
6:34 PM 29.7 °F 23.7 °F 18.5 °F 63% 30.30 in 10.0 mi South 5.8 mph - N/A   Clear
6:55 PM 29.3 °F 22.3 °F 18.5 °F 64% 30.31 in 10.0 mi South 6.9 mph - N/A   Clear
7:14 PM 29.7 °F 22.0 °F 18.1 °F 62% 30.31 in 10.0 mi South 8.1 mph - N/A   Clear
7:34 PM 29.3 °F 22.3 °F 17.8 °F 62% 30.31 in 10.0 mi South 6.9 mph - N/A   Clear
7:55 PM 28.9 °F 22.8 °F 17.2 °F 62% 30.31 in 10.0 mi South 5.8 mph - N/A   Clear
8:14 PM 28.8 °F 20.2 °F 16.9 °F 61% 30.31 in 10.0 mi South 9.2 mph - N/A   Clear
8:35 PM 28.4 °F 21.2 °F 16.7 °F 62% 30.30 in 10.0 mi South 6.9 mph - N/A   Scattered Clouds
8:54 PM 28.0 °F 24.2 °F 17.2 °F 64% 30.30 in 10.0 mi South 3.5 mph - N/A   Mostly Cloudy
9:15 PM 27.9 °F 22.6 °F 17.8 °F 66% 30.30 in 10.0 mi SSE 4.6 mph - N/A   Overcast
9:35 PM 27.3 °F 20.9 °F 17.6 °F 67% 30.28 in 10.0 mi SSE 5.8 mph - N/A   Mostly Cloudy
9:54 PM 26.6 °F 20.0 °F 17.2 °F 68% 30.29 in 10.0 mi SSE 5.8 mph - N/A   Scattered Clouds
10:15 PM 26.6 °F 21.2 °F 17.4 °F 68% 30.28 in 10.0 mi South 4.6 mph - N/A   Scattered Clouds
10:34 PM 27.1 °F 23.2 °F 17.8 °F 68% 30.27 in 10.0 mi SSE 3.5 mph - N/A   Overcast
10:55 PM 27.3 °F - 17.8 °F 67% 30.26 in 10.0 mi Calm Calm - N/A   Overcast
11:15 PM 27.5 °F - 17.6 °F 66% 30.26 in 10.0 mi Calm Calm - N/A   Overcast
11:34 PM 28.0 °F - 17.8 °F 65% 30.27 in 10.0 mi Calm Calm - N/A   Overcast
11:55 PM 28.2 °F - 18.0 °F 65% 30.27 in 10.0 mi Calm Calm - N/A   Overcast